Temp
60 60 60 61 61 61 61 61 61 61 61 61 62 62 62 62 64 67 60 63 66 67 65 68 70 69 70 65 65 64 62 57 53 53 54 59 57 61 61 60 59 60 58 61 64
60 60 60 60 60 60 61 61 61 61 61 61 61 61 62 62 65 62 65 67 67 66 67 65 65 67 65 62 63 64 60 53 56 57 55 56 55 56 57 57 57 58 63 63 62
60 59 59 60 60 60 60 61 60 61 61 61 61 61 61 63 62 59 66 66 66 66 65 65 65 64 59 61 58 57 56 55 55 56 56 55 55 56 55 52 54 52 56 59 59
59 59 59 59 59 60 60 60 60 60 60 61 61 61 61 63 55 63 64 65 65 67 65 64 63 60 57 55 56 53 54 55 54 55 55 54 56 52 53 52 55 57 57 58 58
59 58 58 58 59 59 60 60 60 60 60 61 61 61 62 59 57 67 63 65 67 65 61 60 60 58 54 54 55 54 53 55 55 55 55 55 51 53 51 55 57 58 57 57 58
59 58 58 58 58 59 60 60 60 60 60 61 61 61 61 56 64 66 65 64 64 64 60 61 58 59 55 52 53 54 54 54 54 54 54 52 51 52 53 56 56 56 56 56 56
59 58 58 58 59 59 59 59 60 60 60 61 62 62 60 57 66 67 65 62 62 62 59 59 60 59 58 52 54 54 50 52 53 53 52 53 47 48 53 55 55 54 55 55 56
59 58 58 58 59 59 59 59 59 60 60 61 61 62 56 64 68 64 65 63 65 64 61 61 63 58 55 56 53 50 50 48 51 52 52 51 48 49 53 53 53 53 54 54 55
58 58 58 58 59 58 58 59 59 59 61 62 61 60 54 64 60 63 64 60 61 61 62 62 60 55 54 51 49 48 48 45 47 51 49 49 48 49 52 53 52 52 52 51 51
58 58 58 58 58 58 58 59 59 60 61 62 61 56 56 55 59 61 64 61 58 58 57 57 56 54 53 51 42 42 44 43 45 48 48 47 47 48 50 50 51 51 52 52 50
58 58 58 58 58 58 56 58 58 55 58 54 54 53 54 59 61 59 61 59 59 57 52 52 52 45 49 48 47 47 44 42 45 47 45 45 46 48 49 50 50 51 51 51 51
58 58 58 58 58 57 55 54 51 52 51 53 53 54 56 58 52 56 61 54 53 50 50 50 49 49 49 48 46 44 40 41 45 46 44 45 44 48 48 49 49 49 50 50 50
57 57 58 58 57 54 51 51 54 54 49 49 53 53 53 56 51 52 56 53 51 47 48 49 49 50 48 45 44 40 38 36 41 45 44 42 42 41 47 48 50 51 51 51 49
57 57 57 57 53 51 50 52 54 54 44 45 46 51 53 54 48 56 56 54 49 47 47 48 49 47 46 44 46 41 45 42 41 40 37 41 35 33 42 45 47 49 50 49 49
57 56 56 56 49 48 52 52 54 53 33 45 46 57 53 49 50 51 56 54 47 46 47 45 44 44 43 45 47 43 45 43 41 40 38 36 34 38 39 39 45 49 49 49 49
56 56 54 50 48 49 49 50 53 37 33 40 45 44 45 47 48 50 51 54 52 46 47 45 49 48 48 46 46 46 43 41 41 39 31 32 34 40 39 39 44 48 48 48 48
56 55 54 51 46 50 50 47 35 33 44 37 39 43 43 41 44 46 45 44 44 39 41 43 44 47 48 44 45 44 41 35 33 31 36 35 34 39 44 47 48 48 48 48 48
55 54 51 51 50 50 47 36 27 35 38 43 42 41 41 43 43 44 43 43 45 45 43 42 38 43 47 46 45 43 42 38 31 33 38 33 32 46 46 48 49 48 48 47 48
54 47 46 48 50 49 40 28 33 36 45 41 40 39 37 41 43 42 43 44 47 47 45 41 39 44 44 46 45 40 38 41 34 26 31 40 42 47 44 45 46 47 47 48 48
48 45 44 49 50 45 34 33 35 43 43 43 43 44 36 36 40 40 40 46 45 47 48 46 37 41 43 46 44 42 44 35 35 29 30 39 36 46 40 43 46 46 47 50 48
46 40 44 49 48 38 30 32 36 44 45 42 40 39 43 38 38 40 42 43 45 43 47 45 43 36 41 40 41 38 38 37 38 37 32 32 43 51 51 50 48 48 49 50 49
43 33 45 49 33 32 30 33 40 40 43 42 43 42 41 40 39 39 42 44 48 46 41 45 42 34 38 40 41 40 40 42 38 31 34 32 39 47 49 49 50 50 49 50 49
38 35 44 46 31 29 31 33 36 38 40 39 40 43 42 39 36 41 41 43 46 45 43 43 34 31 33 37 38 37 39 41 38 37 30 32 44 45 45 46 47 50 49 48 49
35 29 33 36 36 36 32 33 33 40 40 43 42 43 39 38 38 37 38 40 42 45 44 46 37 36 38 37 38 33 37 39 41 32 35 37 44 44 44 45 47 47 49 49 48
35 32 34 29 31 33 38 35 34 32 36 42 39 40 41 34 36 36 37 37 41 43 42 43 33 33 36 37 36 37 37 36 35 41 37 46 41 50 50 49 50 50 48 47 46
32 32 34 34 39 33 36 33 36 37 35 34 34 41 42 39 42 33 35 37 38 39 39 40 32 30 30 32 32 28 36 38 37 39 41 41 41 54 54 55 51 47 46 45 46
39 41 38 37 35 32 34 38 38 42 40 43 42 39 39 45 45 41 39 42 43 39 38 35 30 29 31 27 26 28 32 36 40 41 41 37 46 48 46 46 48 48 47 46 47
MSLP
1022.94 1022.76 1022.55 1022.30 1022.06 1021.79 1021.47 1021.14 1020.92 1020.70 1020.39 1020.07 1019.74 1019.39 1019.04 1018.63 1018.07 1017.67 1018.02 1018.63 1018.14 1017.67 1017.35 1016.80 1016.34 1016.13 1015.87 1015.98 1016.17 1015.92 1015.10 1015.12 1016.09 1016.66 1017.26 1018.00 1018.04 1018.34 1018.65 1018.20 1018.55 1018.95 1019.14 1019.36 1019.06
1022.96 1022.83 1022.62 1022.39 1022.13 1021.86 1021.59 1021.30 1020.99 1020.73 1020.44 1020.11 1019.84 1019.54 1019.19 1018.84 1018.29 1018.12 1018.71 1018.33 1018.01 1017.71 1017.12 1016.82 1016.48 1016.27 1016.13 1016.46 1016.47 1015.90 1015.77 1016.62 1017.53 1017.84 1018.09 1018.50 1018.72 1018.89 1018.72 1018.66 1018.81 1019.03 1019.14 1019.46 1019.31
1022.95 1022.89 1022.68 1022.45 1022.15 1021.84 1021.55 1021.23 1020.92 1020.62 1020.36 1020.04 1019.74 1019.48 1019.21 1018.88 1018.39 1018.41 1018.53 1018.19 1017.79 1017.51 1017.38 1017.06 1017.02 1016.63 1016.68 1017.02 1017.23 1017.05 1016.99 1017.85 1018.46 1018.78 1018.95 1018.93 1019.06 1019.44 1019.22 1019.28 1019.87 1019.96 1019.54 1019.39 1019.16
1022.87 1022.86 1022.70 1022.46 1022.17 1021.82 1021.53 1021.20 1020.85 1020.53 1020.22 1019.92 1019.65 1019.38 1019.07 1018.82 1018.97 1018.61 1018.55 1018.19 1017.86 1017.44 1017.30 1017.05 1016.87 1016.84 1017.21 1017.43 1017.96 1017.86 1018.50 1018.57 1019.03 1019.35 1019.34 1019.31 1019.57 1019.87 1020.01 1020.46 1020.67 1020.44 1020.19 1019.69 1019.08
1022.71 1022.74 1022.65 1022.41 1022.15 1021.79 1021.42 1021.12 1020.78 1020.46 1020.14 1019.79 1019.48 1019.23 1018.98 1018.65 1018.80 1018.67 1018.59 1018.20 1017.79 1017.59 1017.53 1017.39 1017.08 1017.33 1017.68 1018.09 1018.29 1018.22 1018.83 1019.12 1019.47 1019.60 1019.70 1019.76 1019.86 1019.83 1020.31 1020.64 1020.59 1020.38 1020.03 1019.41 1019.07
1022.44 1022.58 1022.56 1022.38 1022.13 1021.81 1021.41 1021.03 1020.70 1020.41 1020.10 1019.75 1019.40 1019.10 1018.84 1018.74 1019.02 1018.84 1018.66 1018.31 1018.15 1017.87 1017.96 1017.79 1017.73 1017.75 1018.17 1018.73 1018.67 1018.97 1019.07 1019.34 1019.54 1019.60 1019.85 1019.75 1019.94 1020.21 1020.27 1020.65 1020.37 1020.16 1019.76 1019.50 1019.26
1022.17 1022.32 1022.35 1022.22 1022.01 1021.72 1021.40 1021.01 1020.63 1020.31 1020.03 1019.70 1019.39 1019.07 1018.64 1019.16 1019.06 1018.92 1018.76 1018.77 1018.66 1018.41 1018.31 1018.44 1018.30 1018.12 1018.42 1018.93 1019.51 1019.33 1019.21 1019.26 1019.35 1019.57 1019.71 1019.94 1019.92 1019.99 1020.59 1020.63 1020.14 1019.98 1019.72 1019.53 1019.27
1021.75 1021.98 1022.02 1022.00 1021.74 1021.51 1021.24 1020.82 1020.42 1020.09 1019.84 1019.66 1019.43 1019.01 1018.85 1019.12 1019.08 1019.00 1018.89 1018.90 1018.86 1018.70 1018.68 1018.85 1018.56 1018.50 1018.88 1019.39 1019.43 1019.13 1019.20 1018.86 1019.20 1019.51 1019.84 1020.00 1019.00 1020.06 1020.55 1020.46 1020.00 1019.84 1019.54 1019.47 1019.32
1021.47 1021.62 1021.59 1021.72 1021.47 1021.33 1021.03 1020.51 1020.10 1019.77 1019.65 1019.48 1019.37 1018.98 1019.05 1019.17 1019.18 1019.15 1018.99 1018.89 1019.01 1019.08 1018.94 1018.87 1018.62 1018.85 1019.40 1019.00 1019.11 1019.12 1018.55 1018.83 1019.11 1019.70 1019.82 1019.91 1019.15 1019.97 1020.41 1020.19 1019.77 1019.77 1019.71 1019.69 1019.43
1021.07 1021.27 1021.37 1021.43 1021.42 1021.20 1020.80 1020.15 1019.76 1019.66 1019.53 1019.48 1019.38 1019.54 1019.57 1019.24 1019.25 1019.22 1019.17 1019.14 1019.00 1019.07 1018.94 1018.65 1018.61 1018.66 1018.99 1018.95 1018.72 1018.67 1018.85 1019.17 1019.21 1019.74 1019.75 1019.55 1019.34 1019.76 1020.11 1020.07 1019.89 1019.82 1019.93 1019.69 1019.38
1020.62 1020.88 1021.01 1021.24 1021.33 1021.17 1020.90 1020.00 1020.19 1020.13 1019.54 1019.50 1019.42 1019.31 1019.27 1019.38 1019.43 1019.31 1019.15 1019.11 1019.03 1018.85 1018.55 1018.76 1018.48 1018.43 1018.72 1019.15 1019.20 1019.16 1019.31 1019.37 1019.60 1020.07 1020.00 1019.33 1019.27 1019.51 1019.93 1019.89 1019.59 1019.50 1019.69 1019.48 1019.20
1020.24 1020.54 1020.80 1021.05 1021.28 1021.09 1021.19 1020.45 1020.91 1021.30 1020.23 1019.76 1019.56 1019.44 1019.47 1019.42 1019.34 1019.37 1019.37 1019.17 1018.99 1018.69 1018.94 1018.85 1018.45 1018.83 1019.23 1019.57 1019.69 1019.82 1019.94 1019.87 1019.98 1020.24 1020.29 1019.51 1019.05 1019.09 1019.60 1019.58 1019.58 1019.61 1019.61 1019.49 1019.31
1019.86 1020.29 1020.65 1020.88 1021.04 1021.28 1021.40 1020.91 1020.97 1021.07 1020.54 1019.88 1019.65 1019.41 1019.51 1019.64 1019.36 1019.45 1019.49 1019.18 1019.00 1018.97 1018.83 1018.47 1018.99 1019.39 1019.42 1019.79 1019.98 1020.28 1020.23 1020.35 1020.40 1020.21 1020.21 1019.89 1018.75 1019.02 1019.35 1019.48 1019.39 1019.43 1019.42 1019.41 1019.30
1019.37 1019.98 1020.51 1020.92 1021.43 1021.28 1021.48 1021.36 1020.77 1020.81 1020.68 1019.99 1019.70 1019.61 1019.64 1019.60 1019.68 1019.64 1019.59 1019.49 1019.28 1019.12 1019.16 1019.08 1019.49 1019.62 1019.72 1019.75 1020.01 1020.16 1020.28 1020.48 1020.50 1020.43 1020.14 1020.32 1019.50 1018.95 1018.92 1018.92 1018.91 1018.95 1019.10 1019.15 1019.07
1018.74 1019.45 1020.10 1020.60 1021.02 1021.30 1021.33 1021.25 1020.65 1020.61 1020.56 1020.05 1019.80 1019.85 1019.67 1019.68 1019.76 1019.71 1019.74 1019.44 1019.35 1019.30 1019.54 1019.45 1019.50 1019.73 1019.82 1019.80 1020.14 1020.34 1020.59 1020.49 1020.46 1020.35 1020.49 1020.16 1020.23 1018.36 1018.72 1018.29 1018.11 1018.34 1018.71 1019.01 1019.22
1017.99 1018.91 1019.69 1020.63 1021.16 1021.14 1021.21 1020.83 1020.76 1020.92 1020.09 1019.74 1019.80 1019.82 1019.74 1019.67 1019.73 1019.79 1019.64 1019.64 1019.80 1019.47 1019.42 1019.61 1019.91 1019.83 1019.78 1020.20 1020.41 1020.58 1020.62 1020.46 1020.40 1020.25 1020.16 1019.80 1019.87 1017.60 1017.47 1017.30 1017.60 1018.06 1018.46 1018.78 1018.99
1017.19 1018.15 1018.99 1019.71 1020.45 1020.88 1021.04 1021.15 1021.70 1020.53 1019.22 1019.59 1019.68 1019.75 1019.68 1019.65 1019.71 1019.65 1019.58 1019.42 1019.05 1019.22 1019.04 1019.58 1019.66 1019.97 1020.12 1020.26 1020.61 1020.54 1020.15 1019.94 1020.06 1019.82 1019.14 1019.35 1019.22 1016.33 1016.54 1016.97 1017.12 1017.70 1018.17 1018.73 1018.96
1016.33 1017.56 1018.66 1019.24 1019.94 1020.57 1021.02 1021.94 1022.16 1019.10 1018.62 1018.90 1019.23 1019.66 1019.61 1019.47 1019.48 1019.59 1019.47 1019.07 1018.90 1018.71 1018.46 1018.62 1019.45 1019.85 1020.06 1019.97 1019.84 1020.21 1019.95 1019.60 1019.48 1019.34 1018.76 1019.11 1017.67 1015.63 1016.25 1016.90 1017.46 1017.89 1018.30 1018.60 1018.99
1016.14 1017.87 1018.70 1019.23 1019.82 1020.10 1020.98 1021.56 1019.47 1018.44 1017.65 1018.25 1019.03 1019.11 1019.51 1019.44 1019.20 1019.47 1019.28 1018.51 1017.66 1017.99 1017.78 1018.24 1019.16 1019.86 1020.28 1020.33 1020.56 1020.57 1020.32 1020.15 1019.78 1020.25 1019.12 1016.86 1016.07 1015.36 1015.95 1016.37 1016.86 1017.43 1018.08 1018.40 1018.71
1015.87 1017.34 1018.50 1018.74 1019.69 1020.07 1021.38 1020.07 1018.93 1017.83 1017.45 1017.73 1017.32 1017.64 1018.41 1019.04 1018.96 1019.24 1018.70 1017.77 1017.51 1017.65 1017.72 1017.89 1019.04 1020.14 1020.46 1020.58 1020.78 1020.78 1020.49 1020.35 1019.97 1019.21 1017.80 1015.82 1015.20 1013.88 1014.75 1015.17 1016.01 1016.88 1017.30 1018.00 1018.64
1015.73 1017.04 1018.30 1018.52 1019.82 1020.58 1020.74 1019.85 1018.71 1017.62 1017.27 1017.36 1017.10 1017.43 1017.76 1018.23 1018.58 1018.50 1018.22 1017.83 1017.64 1017.95 1018.08 1018.11 1018.54 1020.66 1020.73 1020.16 1019.88 1020.97 1020.47 1020.14 1019.80 1018.83 1017.65 1016.11 1013.38 1012.62 1013.10 1013.80 1014.62 1015.81 1016.82 1017.44 1018.23
1015.33 1017.03 1018.02 1017.86 1019.91 1019.87 1019.30 1018.85 1017.85 1017.50 1017.33 1017.18 1017.06 1017.23 1017.58 1017.83 1018.35 1018.41 1017.83 1017.46 1017.77 1017.75 1018.22 1018.50 1018.70 1019.60 1019.80 1020.23 1020.51 1020.27 1019.93 1019.37 1018.96 1018.70 1017.98 1017.06 1013.47 1012.71 1013.16 1013.65 1014.37 1015.15 1016.20 1017.11 1018.02
1015.19 1016.75 1017.85 1017.37 1017.63 1018.20 1018.45 1017.93 1017.72 1017.45 1017.10 1017.02 1016.99 1016.52 1017.31 1017.68 1018.43 1018.07 1017.96 1018.12 1018.14 1017.95 1017.89 1018.57 1019.15 1019.63 1019.98 1020.53 1020.62 1020.15 1019.52 1019.16 1018.86 1018.51 1017.36 1016.36 1012.89 1012.99 1013.60 1013.90 1014.39 1014.89 1015.76 1016.61 1017.54
1015.67 1016.82 1018.02 1017.74 1016.46 1016.55 1017.27 1017.16 1017.18 1016.94 1016.63 1016.39 1016.44 1016.70 1017.18 1017.68 1018.42 1018.72 1018.60 1018.78 1018.77 1018.45 1018.43 1018.58 1018.82 1018.53 1018.52 1018.45 1018.81 1019.34 1018.82 1018.63 1018.22 1017.83 1016.04 1013.96 1012.61 1012.82 1013.01 1013.28 1013.97 1014.65 1015.58 1016.40 1016.99
1015.32 1015.05 1014.69 1015.84 1015.47 1015.54 1015.95 1015.76 1016.03 1016.12 1016.45 1016.12 1016.39 1015.93 1015.95 1016.87 1017.78 1018.26 1019.01 1019.27 1019.49 1019.30 1019.17 1019.30 1019.41 1019.34 1018.88 1018.83 1018.83 1018.55 1018.25 1018.05 1017.27 1015.91 1015.11 1012.04 1011.95 1011.64 1011.84 1012.35 1012.87 1013.90 1015.05 1016.18 1016.69
1014.77 1014.33 1014.59 1013.67 1014.12 1014.87 1014.55 1013.56 1013.55 1014.56 1015.01 1015.31 1015.14 1014.93 1015.28 1015.28 1015.41 1017.35 1018.26 1019.27 1018.97 1019.71 1019.86 1019.99 1020.07 1020.10 1019.74 1019.35 1019.04 1018.33 1017.53 1017.17 1016.40 1015.53 1014.11 1013.06 1011.00 1011.12 1011.30 1011.89 1012.59 1013.37 1014.32 1015.42 1016.19
1014.09 1013.47 1013.09 1012.39 1012.57 1013.27 1011.17 1010.57 1011.53 1012.89 1013.35 1013.26 1013.93 1014.79 1015.00 1014.72 1015.58 1016.80 1017.64 1018.97 1018.91 1018.95 1019.77 1020.25 1020.50 1020.74 1020.00 1019.86 1019.16 1017.58 1014.25 1014.60 1014.04 1013.32 1012.57 1012.40 1009.09 1010.26 1010.43 1011.31 1011.62 1012.29 1013.25 1013.89 1015.12
Wind_Speed
7 8 9 9 10 11 12 12 13 13 14 14 13 12 12 13 6 3 7 7 9 15 13 7 1 3 2 4 3 1 3 3 3 3 4 2 4 3 3 4 3 5 7 11 18
7 8 8 9 10 10 11 12 12 13 13 14 13 12 11 9 1 9 3 10 11 10 4 5 2 3 4 3 3 2 1 3 2 2 2 3 2 4 4 4 2 5 11 14 15
6 7 8 9 10 11 12 12 12 13 13 13 13 12 12 5 2 3 8 11 10 8 1 2 1 2 4 3 5 3 3 5 3 2 1 1 1 2 5 0 6 14 17 16 15
6 8 8 9 10 11 12 13 13 13 13 12 11 11 10 2 1 2 10 10 7 3 1 2 2 3 3 3 3 4 4 2 3 1 1 2 3 2 6 5 8 10 12 14 15
7 8 8 9 10 12 13 13 14 14 13 12 11 11 2 1 3 4 9 8 4 3 5 2 3 3 4 4 3 5 5 4 3 2 3 1 2 1 2 7 7 9 10 13 14
6 8 9 9 11 12 13 14 14 14 13 11 10 9 2 1 2 5 6 4 8 5 6 4 3 5 7 3 2 3 5 5 2 2 1 5 2 4 1 9 9 9 11 12 14
8 8 9 10 11 12 14 15 15 14 13 10 8 3 1 4 2 4 4 3 4 3 4 3 3 1 5 6 3 5 5 2 1 1 2 2 4 3 5 8 11 12 12 13 14
10 9 9 11 12 11 14 16 16 15 10 7 6 2 3 1 2 2 2 2 4 4 5 3 5 8 3 7 3 2 2 4 3 2 2 3 0 3 4 9 11 13 13 14 17
11 9 8 9 7 9 15 18 17 9 6 4 1 3 2 1 1 2 3 2 2 3 4 3 2 4 3 4 3 2 3 3 2 1 2 2 4 4 3 7 10 12 13 12 14
11 10 8 7 7 10 16 17 5 3 1 0 1 3 1 2 1 1 1 2 1 2 1 1 3 3 3 4 2 5 3 2 4 2 3 6 9 2 3 5 7 8 9 12 13
11 10 8 6 7 9 9 2 2 2 0 2 2 2 3 2 1 1 1 1 1 1 3 2 4 4 5 1 2 4 2 1 2 0 6 4 9 7 4 4 5 6 8 10 12
11 9 7 5 4 6 4 2 2 2 3 0 1 1 1 1 2 1 1 3 3 3 2 4 4 5 8 5 3 2 1 2 4 3 4 7 13 8 7 4 5 7 9 10 11
12 9 6 4 1 1 3 3 3 1 3 0 1 2 1 2 1 4 2 2 2 4 4 3 5 8 4 5 4 3 2 2 3 6 2 10 6 5 5 8 8 9 8 7 10
15 11 8 5 1 1 1 2 3 1 2 3 2 1 2 2 2 1 1 0 2 5 4 2 4 5 4 3 5 3 4 3 1 6 4 5 5 4 6 8 8 8 7 8 10
19 16 14 6 3 2 1 3 3 2 4 4 3 1 2 3 4 2 1 2 3 5 4 3 8 6 4 1 4 3 3 1 1 2 5 2 2 1 3 6 8 6 5 6 8
22 20 19 5 2 1 3 3 1 6 9 3 2 4 4 2 2 2 2 3 1 2 2 3 1 2 1 3 1 6 3 2 1 2 3 3 3 4 6 5 3 4 4 5 7
26 23 14 8 5 6 3 2 5 5 2 4 4 5 2 4 4 4 5 6 5 6 6 2 3 1 1 3 2 3 3 1 2 3 2 3 4 8 5 7 5 4 4 4 5
27 25 11 3 7 6 3 7 5 3 5 3 4 4 4 6 3 5 5 5 7 3 4 6 5 7 5 2 2 5 3 2 4 3 2 2 7 2 2 3 5 4 5 4 4
26 5 6 6 8 4 6 4 11 8 6 13 5 5 5 4 3 5 8 5 7 14 6 6 3 2 1 1 2 4 4 2 3 1 4 3 6 9 5 7 8 8 7 6 3
8 7 5 11 6 5 3 5 5 3 7 3 8 8 9 7 8 8 9 4 5 9 1 5 4 1 3 2 3 4 5 3 1 3 5 4 6 6 8 14 12 11 10 7 3
5 6 6 11 3 5 6 8 6 5 4 6 6 6 4 7 7 7 4 3 4 7 2 5 1 3 2 9 8 5 4 2 3 3 3 4 5 4 9 11 15 14 10 7 5
3 5 10 14 6 4 6 8 7 5 2 2 3 3 8 9 8 7 9 4 9 12 8 5 3 5 4 1 1 1 4 8 4 5 2 2 8 5 6 5 10 12 11 9 5
5 4 7 10 9 7 2 5 4 6 7 8 9 4 5 6 2 9 5 2 9 9 9 8 3 3 2 3 3 6 8 5 4 1 8 4 4 3 4 6 9 12 12 11 8
3 5 3 3 2 12 9 8 7 5 5 5 5 5 5 4 5 4 5 2 2 4 2 4 3 4 3 3 4 6 11 15 11 5 4 12 4 6 10 11 11 12 12 13 11
3 5 5 14 15 5 15 15 13 10 4 6 5 6 11 7 7 7 2 2 1 1 2 3 5 3 4 3 3 4 7 16 20 16 12 3 12 11 14 16 16 15 13 13 13
2 4 3 2 17 18 15 18 22 12 12 8 8 20 12 12 10 9 8 4 5 5 5 3 2 1 4 2 5 7 15 15 21 21 24 22 33 19 18 12 12 15 16 16 15
4 2 3 8 16 18 22 21 25 17 13 4 18 10 16 13 10 8 8 1 3 9 11 8 6 4 4 3 3 9 16 25 18 15 23 20 21 5 4 15 16 16 18 19 18
Wind_Direction
347 355 358 2 359 356 353 352 352 348 344 340 338 338 339 340 325 47 45 329 320 324 325 303 315 45 62 78 41 260 213 162 129 181 111 29 345 57 353 319 47 18 19 325 327
332 341 348 353 356 355 352 349 347 345 342 338 333 332 334 335 47 58 356 329 327 339 347 17 59 26 67 47 27 357 259 88 66 72 38 18 332 337 300 341 334 336 335 338 334
312 325 334 343 348 349 348 346 343 342 341 338 334 331 331 311 222 40 343 339 343 343 147 99 20 49 76 20 15 36 65 126 132 52 348 9 278 357 317 326 7 329 324 331 330
293 308 316 329 338 343 344 343 341 340 339 338 335 331 329 265 268 359 337 339 353 14 84 99 78 76 62 79 36 112 89 84 114 93 158 352 330 89 44 9 324 311 322 319 325
273 288 299 313 323 333 339 340 338 337 336 333 334 336 295 163 74 344 333 349 10 36 54 61 94 121 113 109 103 93 134 110 107 132 57 351 37 207 97 355 324 331 319 326 330
239 270 286 298 312 323 330 332 332 332 330 325 330 330 250 222 358 334 335 356 28 50 59 48 100 119 100 74 21 102 131 116 69 62 94 353 109 206 58 342 336 332 336 337 333
226 252 273 282 294 310 319 322 323 323 321 315 328 329 66 86 341 344 10 15 15 33 85 58 108 183 138 120 116 120 135 146 166 10 208 322 200 211 343 328 339 347 343 339 345
216 227 257 278 283 305 314 314 314 312 304 305 322 276 90 15 343 22 359 38 35 51 76 86 87 89 33 117 102 135 181 217 154 319 141 299 336 154 348 328 350 355 350 349 349
222 228 246 277 297 314 310 309 307 297 289 310 247 287 127 100 198 8 6 60 35 34 69 99 63 75 138 149 145 159 234 224 206 137 314 305 310 164 324 336 358 0 2 356 352
217 223 238 270 300 316 312 308 296 293 102 175 109 189 199 172 119 33 66 57 96 135 155 71 82 130 134 200 240 181 203 226 273 134 257 289 264 239 306 342 346 360 0 8 7
212 217 231 252 295 321 330 335 200 171 113 310 78 60 133 108 212 84 46 142 153 152 202 49 215 171 125 84 71 110 143 255 259 345 307 253 273 299 223 271 340 343 336 341 351
208 213 213 240 277 328 298 48 72 11 294 36 134 117 78 258 141 163 232 189 205 179 169 178 197 138 127 127 119 133 160 255 276 242 291 288 283 275 216 264 282 306 311 325 327
198 204 203 186 51 46 322 114 131 209 262 120 201 170 153 183 191 158 234 146 173 163 202 234 108 147 155 156 180 182 202 200 294 325 245 304 259 205 219 250 267 271 288 312 332
182 178 166 129 199 94 215 242 134 191 339 171 191 130 130 163 170 11 18 315 143 173 156 109 134 169 167 196 206 239 187 176 312 329 301 347 294 232 226 256 259 275 300 325 338
176 168 161 153 134 159 144 202 161 205 308 78 141 90 149 192 129 116 21 162 187 147 203 111 165 171 197 222 189 77 152 167 351 285 302 158 254 169 213 255 238 242 283 319 334
173 161 138 110 82 151 203 186 226 55 249 145 126 178 157 141 151 120 124 66 75 117 48 91 25 228 63 100 67 132 141 96 92 268 248 114 312 236 198 201 191 216 265 307 335
168 158 155 148 178 179 164 359 50 208 126 182 185 182 202 155 162 193 175 178 181 156 192 160 186 150 191 150 137 198 212 301 250 217 288 147 246 269 223 213 207 218 256 299 323
165 153 148 142 139 144 112 70 174 235 205 121 127 124 207 165 166 175 173 221 223 212 153 192 209 185 166 251 240 191 249 241 273 276 341 139 236 254 241 221 216 235 260 277 301
147 118 135 159 159 130 91 150 203 200 152 156 123 161 215 200 189 181 215 235 209 193 211 170 156 107 54 131 282 153 205 45 108 80 274 212 245 241 199 210 220 226 244 250 273
143 139 164 153 165 101 63 231 238 211 127 176 181 181 186 188 178 196 190 205 200 195 212 176 132 225 131 148 77 273 138 137 206 241 256 224 266 247 207 216 213 223 230 232 234
124 137 150 144 96 112 202 221 225 211 162 167 188 141 198 175 198 195 203 216 193 159 151 156 219 137 179 206 183 161 207 190 302 249 261 293 241 197 195 196 198 207 217 217 201
131 151 169 151 144 191 190 186 196 180 155 146 125 123 180 162 193 221 227 236 171 154 172 177 127 180 184 96 320 261 236 192 225 191 249 327 270 169 203 201 200 192 197 203 197
152 99 171 186 186 200 168 168 216 151 183 169 196 197 167 149 231 212 204 19 179 172 157 180 206 144 186 181 183 221 197 204 116 117 207 188 248 162 213 214 202 194 188 190 189
130 131 149 231 201 205 180 187 183 229 196 168 165 126 127 147 143 273 214 30 237 197 134 151 187 233 216 92 120 200 198 199 197 194 193 233 260 214 218 211 195 199 191 192 185
199 191 204 189 217 185 185 168 187 185 214 191 192 204 169 157 160 187 151 86 356 212 101 222 235 216 247 201 194 225 207 198 210 213 217 239 237 240 215 209 202 197 185 191 191
242 178 200 254 194 188 190 199 194 172 157 198 217 191 194 192 185 174 135 193 199 167 176 191 242 170 277 241 231 256 236 226 226 233 248 260 279 262 240 225 195 192 185 195 200
244 259 209 184 185 183 206 195 198 175 210 228 204 169 204 213 142 112 106 330 207 175 183 165 157 172 251 341 303 269 219 210 215 217 223 233 239 212 186 212 214 198 194 196 198